Weather History for Pamplona, Spain

Change the Weather History Date:

Monday, March 18, 2013

  Actual Average Record
Temperature  
Mean Temperature 42 °F -  
Max Temperature 51 °F 58 °F 71 °F (1997)
Min Temperature 32 °F 41 °F 32 °F (2003)
Degree Days  
Heating Degree Days 24    
Moisture  
Dew Point 35 °F    
Average Humidity 75    
Maximum Humidity 100    
Minimum Humidity 47    
Precipitation  
Precipitation 0.00 in - - ()
Sea Level Pressure  
Sea Level Pressure 29.64 in    
Wind  
Wind Speed 4 mph ()    
Max Wind Speed 17 mph    
Max Gust Speed 15 mph    
Visibility 6.1 miles    
Events Fog , Rain    
Averages and records for this station are not official NWS values.
T = Trace of Precipitation, MM = Missing Value Source: Averaged Metar Reports

Daily Weather History Graph

Daily Weather History Graph

Search for Another Location

Airport:

Trip Planner

Search our weather history database for the weather conditions in past years. The results will help you decide how hot, cold, wet, or windy it might be!

Date:

Astronomy

Mar. 18, 2013 Rise Set
Actual Time 7:13 AM CET 7:16 PM CET
Civil Twilight 6:45 AM CET 7:44 PM CET
Nautical Twilight 6:12 AM CET 8:17 PM CET
Astronomical Twilight 5:38 AM CET 8:51 PM CET
Moon 10:53 AM CET (3/18) 1:11 AM CET (3/18)
Length of Visible Light 12h 59m
Length of Day
12h 03m
Waxing Crescent, 38% of the Moon is Illuminated
Mar 18
Waxing Crescent
Mar 19
First Quarter
Mar 27
Full
Apr 3
Last Quarter
Apr 10
New

Hourly Weather History & Observations

Time (CET) Temp. Windchill Dew Point Humidity Pressure Visibility Wind Dir Wind Speed Gust Speed Precip Events Conditions
12:00 AM 41.0 °F - 37.4 °F 87% 29.53 in 6.2 mi WNW 1.2 mph - N/A   Scattered Clouds
5:30 AM 33.8 °F - 33.8 °F 100% 29.53 in - Calm Calm - N/A   Clear
6:00 AM 32.0 °F - 32.0 °F 100% 29.53 in 5.6 mi Variable 1.2 mph - N/A   Unknown
6:30 AM 32.0 °F - 32.0 °F 100% 29.53 in 5.6 mi Variable 1.2 mph - N/A   Unknown
7:00 AM 32.0 °F 28.7 °F 32.0 °F 100% 29.56 in 5.6 mi North 3.5 mph - N/A Fog Fog
7:30 AM 32.0 °F - 32.0 °F 100% 29.56 in 5.6 mi Variable 1.2 mph - N/A   Partly Cloudy
8:00 AM 33.8 °F - 33.8 °F 100% 29.56 in 5.6 mi SSE 2.3 mph - N/A   Partly Cloudy
8:30 AM 35.6 °F - 35.6 °F 100% 29.59 in 5.6 mi Calm Calm - N/A   Partly Cloudy
9:00 AM 37.4 °F - 35.6 °F 93% 29.59 in 5.6 mi Variable 2.3 mph - N/A   Partly Cloudy
9:30 AM 39.2 °F - 37.4 °F 93% 29.59 in 5.6 mi Calm Calm - N/A   Scattered Clouds
10:00 AM 42.8 °F - 37.4 °F 81% 29.59 in 6.2 mi Variable 1.2 mph - N/A   Scattered Clouds
10:30 AM 44.6 °F 38.8 °F 35.6 °F 71% 29.59 in 6.2 mi West 11.5 mph - N/A   Scattered Clouds
11:00 AM 46.4 °F 39.5 °F 33.8 °F 62% 29.62 in 6.2 mi West 17.3 mph - N/A   Mostly Cloudy
11:30 AM 46.4 °F 40.7 °F 33.8 °F 62% 29.62 in 6.2 mi WSW 12.7 mph - N/A   Mostly Cloudy
12:00 PM 48.2 °F - 35.6 °F 62% 29.62 in 6.2 mi WSW 11.5 mph - N/A   Mostly Cloudy
12:30 PM 48.2 °F - 35.6 °F 62% 29.65 in 6.2 mi West 17.3 mph - N/A   Scattered Clouds
1:00 PM 50.0 °F - 33.8 °F 54% 29.65 in 6.2 mi West 13.8 mph - N/A   Scattered Clouds
1:30 PM 50.0 °F - 32.0 °F 50% 29.65 in 6.2 mi West 13.8 mph - N/A   Scattered Clouds
2:00 PM 51.8 °F - 32.0 °F 47% 29.65 in 6.2 mi West 11.5 mph - N/A   Scattered Clouds
2:30 PM 51.8 °F - 33.8 °F 50% 29.62 in 6.2 mi WSW 17.3 mph - N/A   Scattered Clouds
3:00 PM 51.8 °F - 35.6 °F 54% 29.65 in 6.2 mi WNW 15.0 mph - N/A   Scattered Clouds
3:30 PM 51.8 °F - 35.6 °F 54% 29.65 in 6.2 mi NW 10.4 mph - N/A   Scattered Clouds
4:00 PM 51.8 °F - 33.8 °F 50% 29.65 in 6.2 mi NW 6.9 mph - N/A   Scattered Clouds
4:30 PM 48.2 °F - 35.6 °F 62% 29.65 in 6.2 mi North 11.5 mph - N/A   Scattered Clouds
5:00 PM 50.0 °F - 35.6 °F 58% 29.65 in 6.2 mi North 5.8 mph - N/A   Scattered Clouds
5:30 PM 48.2 °F - 37.4 °F 66% 29.68 in 6.2 mi South 3.5 mph - N/A Rain Light Rain
6:00 PM 48.2 °F - 37.4 °F 66% 29.68 in 6.2 mi West 2.3 mph 15.0 mph N/A   Scattered Clouds
6:30 PM 48.2 °F - 35.6 °F 62% 29.68 in 6.2 mi WSW 5.8 mph - N/A   Scattered Clouds
7:00 PM 46.4 °F - 37.4 °F 71% 29.68 in 6.2 mi Variable 2.3 mph - N/A   Scattered Clouds
7:30 PM 44.6 °F - 35.6 °F 71% 29.68 in 6.2 mi Calm Calm - N/A   Scattered Clouds
8:00 PM 44.6 °F 43.1 °F 35.6 °F 71% 29.68 in 6.2 mi NNE 3.5 mph - N/A   Scattered Clouds
8:30 PM 42.8 °F - 35.6 °F 76% 29.71 in 6.2 mi Variable 1.2 mph - N/A   Scattered Clouds
9:00 PM 42.8 °F - 35.6 °F 76% 29.71 in 6.2 mi Variable 1.2 mph - N/A   Scattered Clouds
9:30 PM 42.8 °F - 35.6 °F 76% 29.71 in 6.2 mi ENE 1.2 mph - N/A   Scattered Clouds
10:00 PM 41.0 °F - 35.6 °F 81% 29.71 in 6.2 mi Calm Calm - N/A   Scattered Clouds
10:30 PM 39.2 °F - 35.6 °F 87% 29.74 in 6.2 mi SE 1.2 mph - N/A   Scattered Clouds
11:00 PM 39.2 °F - 35.6 °F 87% 29.74 in 6.2 mi Calm Calm - N/A   Partly Cloudy
11:30 PM 37.4 °F - 35.6 °F 93% 29.74 in 6.2 mi Variable 2.3 mph - N/A   Partly Cloudy